GSAT0208 (GALILEO 11)

Last updated on Wed Oct 29 2025 00:02:34 GMT+0000 (Coordinated Universal Time)

1 41175U 15079B 25300.38527237 .00000061 00000+0 00000+0 0 9992 2 41175 55.6826 107.6502 0002248 25.0775 334.9492 1.70474152 61221
UTC large
Height (km)
Speed (km/s)
/
Latitude / Longitude
Inclination (degrees)
Orbital Period (minutes)
Azimuth
Elevation
Range (km)
Doppler Factor

Next 0 passes for location: London (51.5072 / 0.1276)

Sorry there are no passes over London.